Camarillo, CA

6:28 AM PDT on April 27, 2017 (GMT -0700)
Camarillo

Weather History for KCMA - April, 2014

Change the Weather History Date:

Friday, April 4, 2014

  Actual Average Record
Temperature  
Mean Temperature 56 °F 58 °F  
Max Temperature 64 °F 67 °F 84 °F (1971)
Min Temperature 48 °F 48 °F 38 °F (1999)
Degree Days  
Heating Degree Days 9 8  
Month to date heating degree days 43 32  
Since 1 July heating degree days 1147 1645  
Cooling Degree Days 0 0  
Month to date cooling degree days 0 0  
Year to date cooling degree days 40 13  
Growing Degree Days 6 (Base 50)    
Moisture  
Dew Point 47 °F    
Average Humidity 71    
Maximum Humidity 89    
Minimum Humidity 52    
Precipitation  
Precipitation 0.00 in 0.02 in 1.68 in (2006)
Month to date precipitation 0.05 0.10  
Year to date precipitation 4.18 9.93  
Since 1 July precipitation 5.00  
Sea Level Pressure  
Sea Level Pressure 30.02 in    
Wind  
Wind Speed 5 mph (West)    
Max Wind Speed 17 mph    
Max Gust Speed 22 mph    
Visibility 10 miles    
Events      
T = Trace of Precipitation, MM = Missing Value Source: NWS Daily Summary

Daily Weather History Graph

Daily Weather History Graph

Search for Another Location

Airport or City:

Trip Planner

Search our weather history database for the weather conditions in past years. The results will help you decide how hot, cold, wet, or windy it might be!

Date:

Astronomy

Apr. 04, 2014 Rise Set
Actual Time 6:39 AM PDT 7:19 PM PDT
Civil Twilight 6:14 AM PDT 7:44 PM PDT
Nautical Twilight 5:44 AM PDT 8:14 PM PDT
Astronomical Twilight 5:13 AM PDT 8:45 PM PDT
Moon 10:09 AM PDT (4/4) No Moon Set
Length of Visible Light 13h 30m
Length of Day
12h 40m
Waxing Crescent, 26% of the Moon is Illuminated
Apr 4
Waxing Crescent
Apr 7
First Quarter
Apr 15
Full
Apr 22
Last Quarter
Apr 28
New

Hourly Weather History & Observations

Time (PDT) Temp. Dew Point Humidity Pressure Visibility Wind Dir Wind Speed Gust Speed Precip Events Conditions
12:55 AM 52.0 °F 46.9 °F 83% 30.08 in 10.0 mi Calm Calm - N/A   Clear
1:30 AM 51.8 °F 46.4 °F 82% 30.05 in 10.0 mi Calm Calm - N/A   Scattered Clouds
1:55 AM 52.0 °F 48.0 °F 86% 30.06 in 10.0 mi Calm Calm - N/A   Partly Cloudy
2:55 AM 52.0 °F 46.9 °F 83% 30.05 in 10.0 mi ENE 4.6 mph - N/A   Clear
3:55 AM 51.1 °F 46.0 °F 83% 30.03 in 10.0 mi ENE 4.6 mph - N/A   Clear
4:55 AM 50.0 °F 45.0 °F 83% 30.03 in 10.0 mi Calm Calm - N/A   Clear
5:55 AM 48.0 °F 44.1 °F 86% 30.03 in 10.0 mi Calm Calm - N/A   Partly Cloudy
6:44 AM 50.0 °F 46.4 °F 87% 30.00 in 10.0 mi Calm Calm - N/A   Mostly Cloudy
6:55 AM 48.9 °F 45.0 °F 86% 30.04 in 10.0 mi Calm Calm - N/A   Overcast
7:55 AM 52.0 °F 46.0 °F 80% 30.05 in 10.0 mi ENE 5.8 mph - N/A   Scattered Clouds
8:08 AM 53.6 °F 46.4 °F 77% 30.02 in 10.0 mi ENE 4.6 mph - N/A   Scattered Clouds
8:55 AM 54.0 °F 46.9 °F 77% 30.06 in 10.0 mi Calm Calm - N/A   Clear
9:55 AM 57.0 °F 48.0 °F 72% 30.06 in 10.0 mi Calm Calm - N/A   Clear
10:55 AM 60.1 °F 46.0 °F 60% 30.06 in 10.0 mi Variable 3.5 mph - N/A   Clear
11:55 AM 63.0 °F 46.0 °F 54% 30.04 in 10.0 mi WSW 8.1 mph - N/A   Partly Cloudy
12:55 PM 63.0 °F 46.0 °F 54% 30.03 in 10.0 mi SW 13.8 mph 18.4 mph N/A   Clear
1:55 PM 63.0 °F 46.9 °F 56% 30.02 in 10.0 mi WSW 13.8 mph 19.6 mph N/A   Partly Cloudy
2:55 PM 63.0 °F 44.1 °F 50% 30.01 in 10.0 mi West 12.7 mph - N/A   Clear
3:55 PM 62.1 °F 46.0 °F 56% 30.00 in 10.0 mi West 12.7 mph - N/A   Clear
4:55 PM 62.1 °F 48.9 °F 62% 29.99 in 10.0 mi West 12.7 mph - N/A   Partly Cloudy
5:55 PM 61.0 °F 46.9 °F 60% 29.97 in 10.0 mi West 10.4 mph - N/A   Clear
6:55 PM 59.0 °F 48.0 °F 67% 29.97 in 10.0 mi SW 8.1 mph - N/A   Partly Cloudy
7:55 PM 57.0 °F 48.0 °F 72% 29.97 in 10.0 mi SW 3.5 mph - N/A   Clear
8:55 PM 55.0 °F 48.0 °F 77% 29.98 in 10.0 mi Calm Calm - N/A   Scattered Clouds
9:55 PM 55.0 °F 46.9 °F 74% 29.99 in 10.0 mi WNW 4.6 mph - N/A   Partly Cloudy
10:55 PM 53.1 °F 48.0 °F 83% 29.99 in 10.0 mi West 3.5 mph - N/A   Mostly Cloudy
11:55 PM 53.1 °F 46.9 °F 80% 29.98 in 10.0 mi Calm Calm - N/A   Clear